Year,Month,Day,Hour,Minute,Value (Times are PST for temperature in C)
2015,12,01,00,00,6.10
2015,12,01,00,01,6.20
2015,12,01,00,02,6.20
2015,12,01,00,03,6.20
2015,12,01,00,04,6.20
2015,12,01,00,05,6.20
2015,12,01,00,06,6.20
2015,12,01,00,07,6.30
2015,12,01,00,08,6.30
2015,12,01,00,09,6.30
2015,12,01,00,10,6.30
2015,12,01,00,11,6.30
2015,12,01,00,12,6.30
2015,12,01,00,13,6.40
2015,12,01,00,14,6.40
2015,12,01,00,15,6.40
2015,12,01,00,16,6.40
2015,12,01,00,17,6.40
2015,12,01,00,18,6.40
2015,12,01,00,19,6.40
2015,12,01,00,20,6.40
2015,12,01,00,21,6.40
2015,12,01,00,22,6.40
2015,12,01,00,23,6.40
2015,12,01,00,24,6.40
2015,12,01,00,25,6.40
2015,12,01,00,26,6.40
2015,12,01,00,27,6.40
2015,12,01,00,28,6.40
2015,12,01,00,29,6.40
2015,12,01,00,30,6.40
2015,12,01,00,31,6.40
2015,12,01,00,32,6.40
2015,12,01,00,33,6.40
2015,12,01,00,34,6.40
2015,12,01,00,35,6.40
2015,12,01,00,36,6.40
2015,12,01,00,37,6.30
2015,12,01,00,38,6.30
2015,12,01,00,39,6.30
2015,12,01,00,40,6.30
2015,12,01,00,41,6.30
2015,12,01,00,42,6.30
2015,12,01,00,43,6.30
2015,12,01,00,44,6.30
2015,12,01,00,45,6.30
2015,12,01,00,46,6.20
2015,12,01,00,47,6.20
2015,12,01,00,48,6.20
2015,12,01,00,49,6.20
2015,12,01,00,50,6.20
2015,12,01,00,51,6.20
2015,12,01,00,52,6.20
2015,12,01,00,53,6.10
2015,12,01,00,54,6.10
2015,12,01,00,55,6.10
2015,12,01,00,56,6.10
2015,12,01,00,57,6.10
2015,12,01,00,58,6.10
2015,12,01,00,59,6.10
2015,12,01,01,00,6.10
2015,12,01,01,01,6.00
2015,12,01,01,02,6.00
2015,12,01,01,03,6.00
2015,12,01,01,04,6.00
2015,12,01,01,05,6.00
2015,12,01,01,06,6.00
2015,12,01,01,07,6.00
2015,12,01,01,08,5.90
2015,12,01,01,09,5.90
2015,12,01,01,10,5.90
2015,12,01,01,11,5.90
2015,12,01,01,12,5.90
2015,12,01,01,13,5.90
2015,12,01,01,14,5.90
2015,12,01,01,15,5.90
2015,12,01,01,16,5.90
2015,12,01,01,17,5.90
2015,12,01,01,18,5.90
2015,12,01,01,19,5.90
2015,12,01,01,20,5.90
2015,12,01,01,21,5.80
2015,12,01,01,22,5.80
2015,12,01,01,23,5.80
2015,12,01,01,24,5.80
2015,12,01,01,25,5.80
2015,12,01,01,26,5.80
2015,12,01,01,27,5.80
2015,12,01,01,28,5.80
2015,12,01,01,29,5.80
2015,12,01,01,30,5.80
2015,12,01,01,31,5.80
2015,12,01,01,32,5.80
2015,12,01,01,33,5.80
2015,12,01,01,34,5.80
2015,12,01,01,35,5.80
2015,12,01,01,36,5.80
2015,12,01,01,37,5.80
2015,12,01,01,38,5.80
2015,12,01,01,39,5.80
2015,12,01,01,40,5.70
2015,12,01,01,41,5.70
2015,12,01,01,42,5.70
2015,12,01,01,43,5.70
2015,12,01,01,44,5.70
2015,12,01,01,45,5.70
2015,12,01,01,46,5.70
2015,12,01,01,47,5.70
2015,12,01,01,48,5.70
2015,12,01,01,49,5.70
2015,12,01,01,50,5.70
2015,12,01,01,51,5.70
2015,12,01,01,52,5.70
2015,12,01,01,53,5.70
2015,12,01,01,54,5.70
2015,12,01,01,55,5.70
2015,12,01,01,56,5.70
2015,12,01,01,57,5.70
2015,12,01,01,58,5.70
2015,12,01,01,59,5.70
2015,12,01,02,00,5.70
2015,12,01,02,01,5.70
2015,12,01,02,02,5.70
2015,12,01,02,03,5.70
2015,12,01,02,04,5.70
2015,12,01,02,05,5.80
2015,12,01,02,06,5.80
2015,12,01,02,07,5.80
2015,12,01,02,08,5.80
2015,12,01,02,09,5.80
2015,12,01,02,10,5.70
2015,12,01,02,11,5.70
2015,12,01,02,12,5.70
2015,12,01,02,13,5.70
2015,12,01,02,14,5.70
2015,12,01,02,15,5.70
2015,12,01,02,16,5.70
2015,12,01,02,17,5.70
2015,12,01,02,18,5.70
2015,12,01,02,19,5.70
2015,12,01,02,20,5.80
2015,12,01,02,21,5.80
2015,12,01,02,22,5.80
2015,12,01,02,23,5.80
2015,12,01,02,24,5.80
2015,12,01,02,25,5.80
2015,12,01,02,26,5.80
2015,12,01,02,27,5.80
2015,12,01,02,28,5.80
2015,12,01,02,29,5.80
2015,12,01,02,30,5.80
2015,12,01,02,31,5.80
2015,12,01,02,32,5.80
2015,12,01,02,33,5.80
2015,12,01,02,34,5.80
2015,12,01,02,35,5.80
2015,12,01,02,36,5.80
2015,12,01,02,37,5.80
2015,12,01,02,38,5.80
2015,12,01,02,39,5.80
2015,12,01,02,40,5.80
2015,12,01,02,41,5.80
2015,12,01,02,42,5.80
2015,12,01,02,43,5.80
2015,12,01,02,44,5.80
2015,12,01,02,45,5.80
2015,12,01,02,46,5.80
2015,12,01,02,47,5.80
2015,12,01,02,48,5.80
2015,12,01,02,49,5.80
2015,12,01,02,50,5.80
2015,12,01,02,51,5.80
2015,12,01,02,52,5.80
2015,12,01,02,53,5.80
2015,12,01,02,54,5.90
2015,12,01,02,55,5.80
2015,12,01,02,56,5.90
2015,12,01,02,57,5.90
2015,12,01,02,58,5.90
2015,12,01,02,59,5.90
2015,12,01,03,00,5.90
2015,12,01,03,01,5.90
2015,12,01,03,02,5.90
2015,12,01,03,03,6.00
2015,12,01,03,04,6.00
2015,12,01,03,05,6.00
2015,12,01,03,06,6.00
2015,12,01,03,07,6.10
2015,12,01,03,08,6.10
2015,12,01,03,09,6.10
2015,12,01,03,10,6.10
2015,12,01,03,11,6.10
2015,12,01,03,12,6.10
2015,12,01,03,13,6.10
2015,12,01,03,14,6.10
2015,12,01,03,15,6.10
2015,12,01,03,16,6.20
2015,12,01,03,17,6.20
2015,12,01,03,18,6.20
2015,12,01,03,19,6.20
2015,12,01,03,20,6.20
2015,12,01,03,21,6.20
2015,12,01,03,22,6.20
2015,12,01,03,23,6.20
2015,12,01,03,24,6.20
2015,12,01,03,25,6.20
2015,12,01,03,26,6.20
2015,12,01,03,27,6.20
2015,12,01,03,28,6.20
2015,12,01,03,29,6.20
2015,12,01,03,30,6.20
2015,12,01,03,31,6.20
2015,12,01,03,32,6.30
2015,12,01,03,33,6.30
2015,12,01,03,34,6.30
2015,12,01,03,35,6.30
2015,12,01,03,36,6.30
2015,12,01,03,37,6.30
2015,12,01,03,38,6.30
2015,12,01,03,39,6.30
2015,12,01,03,40,6.30
2015,12,01,03,41,6.30
2015,12,01,03,42,6.30
2015,12,01,03,43,6.30
2015,12,01,03,44,6.30
2015,12,01,03,45,6.30
2015,12,01,03,46,6.30
2015,12,01,03,47,6.30
2015,12,01,03,48,6.30
2015,12,01,03,49,6.30
2015,12,01,03,50,6.30
2015,12,01,03,51,6.30
2015,12,01,03,52,6.30
2015,12,01,03,53,6.30
2015,12,01,03,54,6.30
2015,12,01,03,55,6.30
2015,12,01,03,56,6.30
2015,12,01,03,57,6.30
2015,12,01,03,58,6.30
2015,12,01,03,59,6.30
2015,12,01,04,00,6.30
2015,12,01,04,01,6.30
2015,12,01,04,02,6.30
2015,12,01,04,03,6.30
2015,12,01,04,04,6.30
2015,12,01,04,05,6.40
2015,12,01,04,06,6.40
2015,12,01,04,07,6.40
2015,12,01,04,08,6.40
2015,12,01,04,09,6.40
2015,12,01,04,10,6.40
2015,12,01,04,11,6.40
2015,12,01,04,12,6.40
2015,12,01,04,13,6.40
2015,12,01,04,14,6.40
2015,12,01,04,15,6.40
2015,12,01,04,16,6.40
2015,12,01,04,17,6.40
2015,12,01,04,18,6.40
2015,12,01,04,19,6.40
2015,12,01,04,20,6.40
2015,12,01,04,21,6.40
2015,12,01,04,22,6.40
2015,12,01,04,23,6.40
2015,12,01,04,24,6.40
2015,12,01,04,25,6.40
2015,12,01,04,26,6.40
2015,12,01,04,27,6.40
2015,12,01,04,28,6.40
2015,12,01,04,29,6.40
2015,12,01,04,30,6.50
2015,12,01,04,31,6.50
2015,12,01,04,32,6.50
2015,12,01,04,33,6.50
2015,12,01,04,34,6.50
2015,12,01,04,35,6.60
2015,12,01,04,36,6.60
2015,12,01,04,37,6.60
2015,12,01,04,38,6.60
2015,12,01,04,39,6.60
2015,12,01,04,40,6.60
2015,12,01,04,41,6.60
2015,12,01,04,42,6.60
2015,12,01,04,43,6.60
2015,12,01,04,44,6.70
2015,12,01,04,45,6.70
2015,12,01,04,46,6.70
2015,12,01,04,47,6.70
2015,12,01,04,48,6.70
2015,12,01,04,49,6.70
2015,12,01,04,50,6.70
2015,12,01,04,51,6.80
2015,12,01,04,52,6.80
2015,12,01,04,53,6.80
2015,12,01,04,54,6.80
2015,12,01,04,55,6.80
2015,12,01,04,56,6.80
2015,12,01,04,57,6.80
2015,12,01,04,58,6.80
2015,12,01,04,59,6.80
2015,12,01,05,00,6.80
2015,12,01,05,01,6.80
2015,12,01,05,02,6.80
2015,12,01,05,03,6.80
2015,12,01,05,04,6.80
2015,12,01,05,05,6.80
2015,12,01,05,06,6.80
2015,12,01,05,07,6.80
2015,12,01,05,08,6.80
2015,12,01,05,09,6.80
2015,12,01,05,10,6.80
2015,12,01,05,11,6.80
2015,12,01,05,12,6.80
2015,12,01,05,13,6.80
2015,12,01,05,14,6.80
2015,12,01,05,15,6.80
2015,12,01,05,16,6.80
2015,12,01,05,17,6.80
2015,12,01,05,18,6.80
2015,12,01,05,19,6.80
2015,12,01,05,20,6.80
2015,12,01,05,21,6.80
2015,12,01,05,22,6.80
2015,12,01,05,23,6.80
2015,12,01,05,24,6.80
2015,12,01,05,25,6.80
2015,12,01,05,26,6.80
2015,12,01,05,27,6.80
2015,12,01,05,28,6.80
2015,12,01,05,29,6.80
2015,12,01,05,30,6.80
2015,12,01,05,31,6.80
2015,12,01,05,32,6.80
2015,12,01,05,33,6.80
2015,12,01,05,34,6.80
2015,12,01,05,35,6.80
2015,12,01,05,36,6.70
2015,12,01,05,37,6.70
2015,12,01,05,38,6.70
2015,12,01,05,39,6.70
2015,12,01,05,40,6.70
2015,12,01,05,41,6.70
2015,12,01,05,42,6.70
2015,12,01,05,43,6.70
2015,12,01,05,44,6.70
2015,12,01,05,45,6.70
2015,12,01,05,46,6.70
2015,12,01,05,47,6.70
2015,12,01,05,48,6.70
2015,12,01,05,49,6.70
2015,12,01,05,50,6.70
2015,12,01,05,51,6.70
2015,12,01,05,52,6.70
2015,12,01,05,53,6.70
2015,12,01,05,54,6.70
2015,12,01,05,55,6.70
2015,12,01,05,56,6.70
2015,12,01,05,57,6.80
2015,12,01,05,58,6.80
2015,12,01,05,59,6.80
2015,12,01,06,00,6.80
2015,12,01,06,01,6.80
2015,12,01,06,02,6.80
2015,12,01,06,03,6.80
2015,12,01,06,04,6.80
2015,12,01,06,05,6.80
2015,12,01,06,06,6.80
2015,12,01,06,07,6.80
2015,12,01,06,08,6.80
2015,12,01,06,09,6.80
2015,12,01,06,10,6.80
2015,12,01,06,11,6.90
2015,12,01,06,12,6.90
2015,12,01,06,13,6.90
2015,12,01,06,14,6.90
2015,12,01,06,15,6.90
2015,12,01,06,16,6.90
2015,12,01,06,17,6.90
2015,12,01,06,18,6.90
2015,12,01,06,19,6.90
2015,12,01,06,20,6.90
2015,12,01,06,21,6.90
2015,12,01,06,22,6.90
2015,12,01,06,23,6.90
2015,12,01,06,24,7.00
2015,12,01,06,25,7.00
2015,12,01,06,26,7.00
2015,12,01,06,27,7.00
2015,12,01,06,28,7.00
2015,12,01,06,29,7.00
2015,12,01,06,30,7.10
2015,12,01,06,31,7.10
2015,12,01,06,32,7.10
2015,12,01,06,33,7.10
2015,12,01,06,34,7.10
2015,12,01,06,35,7.10
2015,12,01,06,36,7.10
2015,12,01,06,37,7.10
2015,12,01,06,38,7.20
2015,12,01,06,39,7.20
2015,12,01,06,40,7.20
2015,12,01,06,41,7.20
2015,12,01,06,42,7.20
2015,12,01,06,43,7.20
2015,12,01,06,44,7.20
2015,12,01,06,45,7.20
2015,12,01,06,46,7.20
2015,12,01,06,47,7.30
2015,12,01,06,48,7.30
2015,12,01,06,49,7.30
2015,12,01,06,50,7.30
2015,12,01,06,51,7.30
2015,12,01,06,52,7.30
2015,12,01,06,53,7.30
2015,12,01,06,54,7.30
2015,12,01,06,55,7.30
2015,12,01,06,56,7.30
2015,12,01,06,57,7.30
2015,12,01,06,58,7.30
2015,12,01,06,59,7.30
2015,12,01,07,00,7.30
2015,12,01,07,01,7.30
2015,12,01,07,02,7.30
2015,12,01,07,03,7.30
2015,12,01,07,04,7.30
2015,12,01,07,05,7.30
2015,12,01,07,06,7.30
2015,12,01,07,07,7.30
2015,12,01,07,08,7.30
2015,12,01,07,09,7.30
2015,12,01,07,10,7.30
2015,12,01,07,11,7.30
2015,12,01,07,12,7.30
2015,12,01,07,13,7.30
2015,12,01,07,14,7.30
2015,12,01,07,15,7.30
2015,12,01,07,16,7.30
2015,12,01,07,17,7.30
2015,12,01,07,18,7.30
2015,12,01,07,19,7.30
2015,12,01,07,20,7.30
2015,12,01,07,21,7.30
2015,12,01,07,22,7.30
2015,12,01,07,23,7.30
2015,12,01,07,24,7.30
2015,12,01,07,25,7.30
2015,12,01,07,26,7.30
2015,12,01,07,27,7.30
2015,12,01,07,28,7.30
2015,12,01,07,29,7.30
2015,12,01,07,30,7.30
2015,12,01,07,31,7.30
2015,12,01,07,32,7.30
2015,12,01,07,33,7.30
2015,12,01,07,34,7.30
2015,12,01,07,35,7.30
2015,12,01,07,36,7.30
2015,12,01,07,37,7.30
2015,12,01,07,38,7.30
2015,12,01,07,39,7.30
2015,12,01,07,40,7.30
2015,12,01,07,41,7.40
2015,12,01,07,42,7.40
2015,12,01,07,43,7.40
2015,12,01,07,44,7.40
2015,12,01,07,45,7.40
2015,12,01,07,46,7.40
2015,12,01,07,47,7.40
2015,12,01,07,48,7.40
2015,12,01,07,49,7.40
2015,12,01,07,50,7.40
2015,12,01,07,51,7.40
2015,12,01,07,52,7.40
2015,12,01,07,53,7.40
2015,12,01,07,54,7.40
2015,12,01,07,55,7.40
2015,12,01,07,56,7.40
2015,12,01,07,57,7.40
2015,12,01,07,58,7.40
2015,12,01,07,59,7.40
2015,12,01,08,00,7.40
2015,12,01,08,01,7.40
2015,12,01,08,02,7.40
2015,12,01,08,03,7.40
2015,12,01,08,04,7.40
2015,12,01,08,05,7.50
2015,12,01,08,06,7.40
2015,12,01,08,07,7.50
2015,12,01,08,08,7.50
2015,12,01,08,09,7.50
2015,12,01,08,10,7.50
2015,12,01,08,11,7.50
2015,12,01,08,12,7.50
2015,12,01,08,13,7.60
2015,12,01,08,14,7.60
2015,12,01,08,15,7.60
2015,12,01,08,16,7.60
2015,12,01,08,17,7.60
2015,12,01,08,18,7.60
2015,12,01,08,19,7.60
2015,12,01,08,20,7.60
2015,12,01,08,21,7.60
2015,12,01,08,22,7.70
2015,12,01,08,23,7.70
2015,12,01,08,24,7.70
2015,12,01,08,25,7.70
2015,12,01,08,26,7.70
2015,12,01,08,27,7.70
2015,12,01,08,28,7.70
2015,12,01,08,29,7.70
2015,12,01,08,30,7.70
2015,12,01,08,31,7.70
2015,12,01,08,32,7.70
2015,12,01,08,33,7.70
2015,12,01,08,34,7.70
2015,12,01,08,35,7.70
2015,12,01,08,36,7.70
2015,12,01,08,37,7.80
2015,12,01,08,38,7.70
2015,12,01,08,39,7.70
2015,12,01,08,40,7.70
2015,12,01,08,41,7.70
2015,12,01,08,42,7.70
2015,12,01,08,43,7.70
2015,12,01,08,44,7.70
2015,12,01,08,45,7.70
2015,12,01,08,46,7.70
2015,12,01,08,47,7.70
2015,12,01,08,48,7.70
2015,12,01,08,49,7.70
2015,12,01,08,50,7.70
2015,12,01,08,51,7.70
2015,12,01,08,52,7.70
2015,12,01,08,53,7.70
2015,12,01,08,54,7.70
2015,12,01,08,55,7.70
2015,12,01,08,56,7.70
2015,12,01,08,57,7.70
2015,12,01,08,58,7.70
2015,12,01,08,59,7.70
2015,12,01,09,00,7.70
2015,12,01,09,01,7.70
2015,12,01,09,02,7.70
2015,12,01,09,03,7.70
2015,12,01,09,04,7.70
2015,12,01,09,05,7.70
2015,12,01,09,06,7.70
2015,12,01,09,07,7.70
2015,12,01,09,08,7.80
2015,12,01,09,09,7.80
2015,12,01,09,10,7.80
2015,12,01,09,11,7.80
2015,12,01,09,12,7.80
2015,12,01,09,13,7.80
2015,12,01,09,14,7.80
2015,12,01,09,15,7.80
2015,12,01,09,16,7.90
2015,12,01,09,17,7.90
2015,12,01,09,18,7.90
2015,12,01,09,19,7.90
2015,12,01,09,20,7.90
2015,12,01,09,21,7.90
2015,12,01,09,22,8.00
2015,12,01,09,23,8.00
2015,12,01,09,24,8.10
2015,12,01,09,25,8.10
2015,12,01,09,26,8.10
2015,12,01,09,27,8.20
2015,12,01,09,28,8.20
2015,12,01,09,29,8.30
2015,12,01,09,30,8.30
2015,12,01,09,31,8.30
2015,12,01,09,32,8.30
2015,12,01,09,33,8.40
2015,12,01,09,34,8.40
2015,12,01,09,35,8.40
2015,12,01,09,36,8.50
2015,12,01,09,37,8.50
2015,12,01,09,38,8.60
2015,12,01,09,39,8.60
2015,12,01,09,40,8.60
2015,12,01,09,41,8.60
2015,12,01,09,42,8.60
2015,12,01,09,43,8.70
2015,12,01,09,44,8.70
2015,12,01,09,45,8.70
2015,12,01,09,46,8.70
2015,12,01,09,47,8.70
2015,12,01,09,48,8.80
2015,12,01,09,49,8.80
2015,12,01,09,50,8.80
2015,12,01,09,51,8.80
2015,12,01,09,52,8.80
2015,12,01,09,53,8.80
2015,12,01,09,54,8.80
2015,12,01,09,55,8.80
2015,12,01,09,56,8.80
2015,12,01,09,57,8.80
2015,12,01,09,58,8.80
2015,12,01,09,59,8.80
2015,12,01,10,00,8.80
2015,12,01,10,01,8.80
2015,12,01,10,02,8.80
2015,12,01,10,03,8.80
2015,12,01,10,04,8.80
2015,12,01,10,05,8.80
2015,12,01,10,06,8.80
2015,12,01,10,07,8.80
2015,12,01,10,08,8.80
2015,12,01,10,09,8.70
2015,12,01,10,10,8.70
2015,12,01,10,11,8.70
2015,12,01,10,12,8.70
2015,12,01,10,13,8.70
2015,12,01,10,14,8.70
2015,12,01,10,15,8.60
2015,12,01,10,16,8.60
2015,12,01,10,17,8.60
2015,12,01,10,18,8.50
2015,12,01,10,19,8.50
2015,12,01,10,20,8.50
2015,12,01,10,21,8.50
2015,12,01,10,22,8.50
2015,12,01,10,23,8.40
2015,12,01,10,24,8.40
2015,12,01,10,25,8.40
2015,12,01,10,26,8.40
2015,12,01,10,27,8.40
2015,12,01,10,28,8.50
2015,12,01,10,29,8.50
2015,12,01,10,30,8.50
2015,12,01,10,31,8.50
2015,12,01,10,32,8.60
2015,12,01,10,33,8.60
2015,12,01,10,34,8.60
2015,12,01,10,35,8.60
2015,12,01,10,36,8.60
2015,12,01,10,37,8.70
2015,12,01,10,38,8.70
2015,12,01,10,39,8.70
2015,12,01,10,40,8.70
2015,12,01,10,41,8.70
2015,12,01,10,42,8.70
2015,12,01,10,43,8.70
2015,12,01,10,44,8.70
2015,12,01,10,45,8.70
2015,12,01,10,46,8.70
2015,12,01,10,47,8.70
2015,12,01,10,48,8.70
2015,12,01,10,49,8.70
2015,12,01,10,50,8.70
2015,12,01,10,51,8.70
2015,12,01,10,52,8.80
2015,12,01,10,53,8.80
2015,12,01,10,54,8.80
2015,12,01,10,55,8.80
2015,12,01,10,56,8.80
2015,12,01,10,57,8.80
2015,12,01,10,58,8.80
2015,12,01,10,59,8.80
2015,12,01,11,00,8.90
2015,12,01,11,01,8.90
2015,12,01,11,02,8.90
2015,12,01,11,03,8.90
2015,12,01,11,04,8.90
2015,12,01,11,05,8.90
2015,12,01,11,06,8.90
2015,12,01,11,07,9.00
2015,12,01,11,08,9.00
2015,12,01,11,09,9.00
2015,12,01,11,10,9.00
2015,12,01,11,11,9.00
2015,12,01,11,12,9.00
2015,12,01,11,13,9.00
2015,12,01,11,14,9.00
2015,12,01,11,15,9.00
2015,12,01,11,16,9.10
2015,12,01,11,17,9.10
2015,12,01,11,18,9.10
2015,12,01,11,19,9.10
2015,12,01,11,20,9.10
2015,12,01,11,21,9.00
2015,12,01,11,22,9.00
2015,12,01,11,23,9.00
2015,12,01,11,24,9.00
2015,12,01,11,25,9.00
2015,12,01,11,26,9.00
2015,12,01,11,27,9.00
2015,12,01,11,28,9.00
2015,12,01,11,29,9.00
2015,12,01,11,30,9.00
2015,12,01,11,31,9.00
2015,12,01,11,32,8.90
2015,12,01,11,33,8.90
2015,12,01,11,34,8.90
2015,12,01,11,35,8.90
2015,12,01,11,36,8.80
2015,12,01,11,37,8.80
2015,12,01,11,38,8.80
2015,12,01,11,39,8.80
2015,12,01,11,40,8.70
2015,12,01,11,41,8.70
2015,12,01,11,42,8.70
2015,12,01,11,43,8.70
2015,12,01,11,44,8.70
2015,12,01,11,45,8.70
2015,12,01,11,46,8.70
2015,12,01,11,47,8.60
2015,12,01,11,48,8.60
2015,12,01,11,49,8.60
2015,12,01,11,50,8.60
2015,12,01,11,51,8.60
2015,12,01,11,52,8.60
2015,12,01,11,53,8.60
2015,12,01,11,54,8.60
2015,12,01,11,55,8.60
2015,12,01,11,56,8.60
2015,12,01,11,57,8.70
2015,12,01,11,58,8.70
2015,12,01,11,59,8.70
2015,12,01,12,00,8.70
2015,12,01,12,01,8.70
2015,12,01,12,02,8.70
2015,12,01,12,03,8.70
2015,12,01,12,04,8.70
2015,12,01,12,05,8.70
2015,12,01,12,06,8.70
2015,12,01,12,07,8.70
2015,12,01,12,08,8.70
2015,12,01,12,09,8.70
2015,12,01,12,10,8.70
2015,12,01,12,11,8.70
2015,12,01,12,12,8.70
2015,12,01,12,13,8.70
2015,12,01,12,14,8.80
2015,12,01,12,15,8.80
2015,12,01,12,16,8.80
2015,12,01,12,17,8.80
2015,12,01,12,18,8.80
2015,12,01,12,19,8.80
2015,12,01,12,20,8.80
2015,12,01,12,21,8.80
2015,12,01,12,22,8.80
2015,12,01,12,23,8.80
2015,12,01,12,24,8.80
2015,12,01,12,25,8.80
2015,12,01,12,26,8.80
2015,12,01,12,27,8.80
2015,12,01,12,28,8.80
2015,12,01,12,29,8.80
2015,12,01,12,30,8.80
2015,12,01,12,31,8.80
2015,12,01,12,32,8.80
2015,12,01,12,33,8.80
2015,12,01,12,34,8.80
2015,12,01,12,35,8.80
2015,12,01,12,36,8.90
2015,12,01,12,37,8.90
2015,12,01,12,38,8.90
2015,12,01,12,39,8.90
2015,12,01,12,40,8.90
2015,12,01,12,41,8.90
2015,12,01,12,42,8.90
2015,12,01,12,43,8.90
2015,12,01,12,44,8.90
2015,12,01,12,45,9.00
2015,12,01,12,46,9.00
2015,12,01,12,47,9.00
2015,12,01,12,48,9.00
2015,12,01,12,49,9.00
2015,12,01,12,50,9.00
2015,12,01,12,51,9.00
2015,12,01,12,52,9.00
2015,12,01,12,53,9.00
2015,12,01,12,54,9.00
2015,12,01,12,55,9.00
2015,12,01,12,56,9.10
2015,12,01,12,57,9.10
2015,12,01,12,58,9.10
2015,12,01,12,59,9.10
2015,12,01,13,00,9.10
2015,12,01,13,01,9.10
2015,12,01,13,02,9.10
2015,12,01,13,03,9.10
2015,12,01,13,04,9.10
2015,12,01,13,05,9.10
2015,12,01,13,06,9.10
2015,12,01,13,07,9.10
2015,12,01,13,08,9.20
2015,12,01,13,09,9.20
2015,12,01,13,10,9.20
2015,12,01,13,11,9.20
2015,12,01,13,12,9.20
2015,12,01,13,13,9.20
2015,12,01,13,14,9.20
2015,12,01,13,15,9.20
2015,12,01,13,16,9.20
2015,12,01,13,17,9.20
2015,12,01,13,18,9.20
2015,12,01,13,19,9.20
2015,12,01,13,20,9.20
2015,12,01,13,21,9.20
2015,12,01,13,22,9.20
2015,12,01,13,23,9.10
2015,12,01,13,24,9.10
2015,12,01,13,25,9.10
2015,12,01,13,26,9.10
2015,12,01,13,27,9.10
2015,12,01,13,28,9.10
2015,12,01,13,29,9.10
2015,12,01,13,30,9.10
2015,12,01,13,31,9.10
2015,12,01,13,32,9.10
2015,12,01,13,33,9.10
2015,12,01,13,34,9.10
2015,12,01,13,35,9.20
2015,12,01,13,36,9.20
2015,12,01,13,37,9.20
2015,12,01,13,38,9.20
2015,12,01,13,39,9.20
2015,12,01,13,40,9.20
2015,12,01,13,41,9.20
2015,12,01,13,42,9.20
2015,12,01,13,43,9.20
2015,12,01,13,44,9.20
2015,12,01,13,45,9.20
2015,12,01,13,46,9.20
2015,12,01,13,47,9.20
2015,12,01,13,48,9.20
2015,12,01,13,49,9.20
2015,12,01,13,50,9.20
2015,12,01,13,51,9.20
2015,12,01,13,52,9.20
2015,12,01,13,53,9.20
2015,12,01,13,54,9.20
2015,12,01,13,55,9.20
2015,12,01,13,56,9.20
2015,12,01,13,57,9.20
2015,12,01,13,58,9.20
2015,12,01,13,59,9.30
2015,12,01,14,00,9.30
2015,12,01,14,01,9.30
2015,12,01,14,02,9.30
2015,12,01,14,03,9.30
2015,12,01,14,04,9.30
2015,12,01,14,05,9.30
2015,12,01,14,06,9.30
2015,12,01,14,07,9.30
2015,12,01,14,08,9.30
2015,12,01,14,09,9.30
2015,12,01,14,10,9.30
2015,12,01,14,11,9.30
2015,12,01,14,12,9.30
2015,12,01,14,13,9.40
2015,12,01,14,14,9.40
2015,12,01,14,15,9.40
2015,12,01,14,16,9.40
2015,12,01,14,17,9.40
2015,12,01,14,18,9.40
2015,12,01,14,19,9.40
2015,12,01,14,20,9.40
2015,12,01,14,21,9.40
2015,12,01,14,22,9.40
2015,12,01,14,23,9.40
2015,12,01,14,24,9.40
2015,12,01,14,25,9.40
2015,12,01,14,26,9.50
2015,12,01,14,27,9.50
2015,12,01,14,28,9.50
2015,12,01,14,29,9.50
2015,12,01,14,30,9.50
2015,12,01,14,31,9.50
2015,12,01,14,32,9.50
2015,12,01,14,33,9.50
2015,12,01,14,34,9.50
2015,12,01,14,35,9.60
2015,12,01,14,36,9.60
2015,12,01,14,37,9.60
2015,12,01,14,38,9.60
2015,12,01,14,39,9.60
2015,12,01,14,40,9.60
2015,12,01,14,41,9.60
2015,12,01,14,42,9.60
2015,12,01,14,43,9.60
2015,12,01,14,44,9.60
2015,12,01,14,45,9.60
2015,12,01,14,46,9.60
2015,12,01,14,47,9.60
2015,12,01,14,48,9.60
2015,12,01,14,49,9.70
2015,12,01,14,50,9.70
2015,12,01,14,51,9.70
2015,12,01,14,52,9.70
2015,12,01,14,53,9.70
2015,12,01,14,54,9.70
2015,12,01,14,55,9.70
2015,12,01,14,56,9.70
2015,12,01,14,57,9.70
2015,12,01,14,58,9.70
2015,12,01,14,59,9.70
2015,12,01,15,00,9.70
2015,12,01,15,01,9.70
2015,12,01,15,02,9.70
2015,12,01,15,03,9.70
2015,12,01,15,04,9.70
2015,12,01,15,05,9.70
2015,12,01,15,06,9.70
2015,12,01,15,07,9.70
2015,12,01,15,08,9.70
2015,12,01,15,09,9.70
2015,12,01,15,10,9.70
2015,12,01,15,11,9.70
2015,12,01,15,12,9.70
2015,12,01,15,13,9.70
2015,12,01,15,14,9.70
2015,12,01,15,15,9.70
2015,12,01,15,16,9.70
2015,12,01,15,17,9.70
2015,12,01,15,18,9.70
2015,12,01,15,19,9.70
2015,12,01,15,20,9.70
2015,12,01,15,21,9.70
2015,12,01,15,22,9.70
2015,12,01,15,23,9.70
2015,12,01,15,24,9.70
2015,12,01,15,25,9.70
2015,12,01,15,26,9.70
2015,12,01,15,27,9.70
2015,12,01,15,28,9.70
2015,12,01,15,29,9.70
2015,12,01,15,30,9.70
2015,12,01,15,31,9.70
2015,12,01,15,32,9.70
2015,12,01,15,33,9.70
2015,12,01,15,34,9.70
2015,12,01,15,35,9.70
2015,12,01,15,36,9.70
2015,12,01,15,37,9.70
2015,12,01,15,38,9.70
2015,12,01,15,39,9.70
2015,12,01,15,40,9.70
2015,12,01,15,41,9.70
2015,12,01,15,42,9.70
2015,12,01,15,43,9.70
2015,12,01,15,44,9.70
2015,12,01,15,45,9.70
2015,12,01,15,46,9.80
2015,12,01,15,47,9.70
2015,12,01,15,48,9.80
2015,12,01,15,49,9.80
2015,12,01,15,50,9.80
2015,12,01,15,51,9.80
2015,12,01,15,52,9.80
2015,12,01,15,53,9.80
2015,12,01,15,54,9.80
2015,12,01,15,55,9.80
2015,12,01,15,56,9.80
2015,12,01,15,57,9.70
2015,12,01,15,58,9.70
2015,12,01,15,59,9.70
2015,12,01,16,00,9.70
2015,12,01,16,01,9.70
2015,12,01,16,02,9.70
2015,12,01,16,03,9.70
2015,12,01,16,04,9.70
2015,12,01,16,05,9.70
2015,12,01,16,06,9.70
2015,12,01,16,07,9.70
2015,12,01,16,08,9.70
2015,12,01,16,09,9.70
2015,12,01,16,10,9.70
2015,12,01,16,11,9.70
2015,12,01,16,12,9.70
2015,12,01,16,13,9.70
2015,12,01,16,14,9.70
2015,12,01,16,15,9.70
2015,12,01,16,16,9.70
2015,12,01,16,17,9.70
2015,12,01,16,18,9.70
2015,12,01,16,19,9.70
2015,12,01,16,20,9.70
2015,12,01,16,21,9.70
2015,12,01,16,22,9.70
2015,12,01,16,23,9.70
2015,12,01,16,24,9.70
2015,12,01,16,25,9.70
2015,12,01,16,26,9.70
2015,12,01,16,27,9.70
2015,12,01,16,28,9.70
2015,12,01,16,29,9.70
2015,12,01,16,30,9.70
2015,12,01,16,31,9.70
2015,12,01,16,32,9.70
2015,12,01,16,33,9.70
2015,12,01,16,34,9.70
2015,12,01,16,35,9.70
2015,12,01,16,36,9.70
2015,12,01,16,37,9.70
2015,12,01,16,38,9.70
2015,12,01,16,39,9.70
2015,12,01,16,40,9.70
2015,12,01,16,41,9.70
2015,12,01,16,42,9.70
2015,12,01,16,43,9.70
2015,12,01,16,44,9.70
2015,12,01,16,45,9.70
2015,12,01,16,46,9.70
2015,12,01,16,47,9.70
2015,12,01,16,48,9.70
2015,12,01,16,49,9.70
2015,12,01,16,50,9.70
2015,12,01,16,51,9.70
2015,12,01,16,52,9.70
2015,12,01,16,53,9.70
2015,12,01,16,54,9.70
2015,12,01,16,55,9.70
2015,12,01,16,56,9.70
2015,12,01,16,57,9.70
2015,12,01,16,58,9.70
2015,12,01,16,59,9.70
2015,12,01,17,00,9.60
2015,12,01,17,01,9.60
2015,12,01,17,02,9.60
2015,12,01,17,03,9.60
2015,12,01,17,04,9.60
2015,12,01,17,05,9.60
2015,12,01,17,06,9.60
2015,12,01,17,07,9.60
2015,12,01,17,08,9.60
2015,12,01,17,09,9.60
2015,12,01,17,10,9.60
2015,12,01,17,11,9.70
2015,12,01,17,12,9.70
2015,12,01,17,13,9.70
2015,12,01,17,14,9.70
2015,12,01,17,15,9.70
2015,12,01,17,16,9.70
2015,12,01,17,17,9.70
2015,12,01,17,18,9.70
2015,12,01,17,19,9.70
2015,12,01,17,20,9.70
2015,12,01,17,21,9.70
2015,12,01,17,22,9.70
2015,12,01,17,23,9.70
2015,12,01,17,24,9.70
2015,12,01,17,25,9.70
2015,12,01,17,26,9.70
2015,12,01,17,27,9.70
2015,12,01,17,28,9.70
2015,12,01,17,29,9.70
2015,12,01,17,30,9.70
2015,12,01,17,31,9.70
2015,12,01,17,32,9.70
2015,12,01,17,33,9.70
2015,12,01,17,34,9.60
2015,12,01,17,35,9.60
2015,12,01,17,36,9.60
2015,12,01,17,37,9.60
2015,12,01,17,38,9.60
2015,12,01,17,39,9.60
2015,12,01,17,40,9.60
2015,12,01,17,41,9.60
2015,12,01,17,42,9.60
2015,12,01,17,43,9.50
2015,12,01,17,44,9.50
2015,12,01,17,45,9.50
2015,12,01,17,46,9.50
2015,12,01,17,47,9.50
2015,12,01,17,48,9.50
2015,12,01,17,49,9.40
2015,12,01,17,50,9.40
2015,12,01,17,51,9.40
2015,12,01,17,52,9.40
2015,12,01,17,53,9.40
2015,12,01,17,54,9.40
2015,12,01,17,55,9.40
2015,12,01,17,56,9.40
2015,12,01,17,57,9.40
2015,12,01,17,58,9.50
2015,12,01,17,59,9.50
2015,12,01,18,00,9.50
2015,12,01,18,01,9.50
2015,12,01,18,02,9.50
2015,12,01,18,03,9.60
2015,12,01,18,04,9.60
2015,12,01,18,05,9.60
2015,12,01,18,06,9.60